Find OneWeb SL0509

NORAD ID: 54127 Int'l Des: 2022-138 Owner: ONEWEBN Country: UK Constellation: oneweb operational
LEOCIRCULARPOLARONEWEB_TYPE

Live Position

Loading 3D Globe...

About OneWeb SL0509

Description loading...

Upcoming Passes

Passes for default location (London). Set your location on the main map for personalized predictions.

Altitude History

Loading altitude history...

Two-Line Element Set

1 54127U 22138Q 26107.28686250 .00000074 00000-0 15188-3 0 9995
2 54127 87.9174 317.1046 0001885 85.1310 275.0038 13.19724174168772
Epoch: Apr 17, 2026 • Age: 9 hours

Current Status

Altitude 1188.7 km
Velocity 7.26 km/s
Sub-Earth Point -1.04°S, 128.47°W
Launch Date Oct 22, 2022
Age 3.4 years
Type internet

Technical Details

Classification Payload
Mass 148.00 kg
Dry Mass 140.00 kg
Total Mass 148.00 kg
Length 1.30 m
Diameter 1.00 m
Span 5.00 m
Shape Trapezoid+2 pan
Manufacturer ONEWUS
Bus Type ARROW
Phase Status In Orbit
Owner/State ONEWEBN/UK

Most Searched